Date String (YYYY-MM-DD hh:mm:ss) UTC,Instrument flags,Ambient pressure (hPa),Sample flow (lpm),Bypass flow (lpm),Sample temperature (°C),Ambient temperature (°C),ASC tube jacket temperature (°C),LED temperature (°C),Box temperature (°C),Sample RH (%),Span deviation,Mass concentration (μg/m³),Mass concentration (μg/m³),Mass concentration (μg/m³)
DateTimeUTC,F1_M11,P_M11,Q1_M11,Q2_M11,T1_M11,T2_M11,T3_M11,T4_M11,T5_M11,U1_M11,ZSPAN_M11,X0_M11,X2_M11,X1_M11
2022-04-16 20:00:00,,0822.2,4.99,0.00,25.5,24.8,00.0,34.3,27.4,10.8,0001.0,0017.09,0008.37,0006.77
2022-04-16 20:01:00,,0822.2,5.00,0.00,25.5,24.8,00.0,34.3,27.4,10.7,0002.2,0018.02,0008.49,0006.83
2022-04-16 20:02:00,,0822.2,4.99,0.00,25.5,24.8,00.0,34.3,27.4,10.6,0002.7,0018.87,0008.55,0006.87
2022-04-16 20:03:00,,0822.1,5.01,0.00,25.5,24.8,00.0,34.3,27.4,10.8,0002.6,0019.69,0008.64,0006.91
2022-04-16 20:04:00,,0822.1,5.00,0.00,25.5,24.8,00.0,34.3,27.4,10.7,0000.2,0020.61,0008.62,0006.95
2022-04-16 20:05:00,,0822.1,5.00,0.00,25.6,24.9,00.0,34.3,27.5,10.7,0000.0,0021.68,0008.65,0006.98
2022-04-16 20:06:00,,0822.1,4.99,0.00,25.6,24.9,00.0,34.4,27.5,10.7,0000.0,0021.71,0008.65,0007.02
2022-04-16 20:07:00,,0822.0,5.00,0.00,25.6,24.9,00.0,34.4,27.5,10.6,0000.0,0022.09,0008.75,0007.06
2022-04-16 20:08:00,,0821.9,5.00,0.00,25.6,25.0,00.0,34.4,27.5,10.6,0000.0,0022.34,0008.79,0007.11
2022-04-16 20:09:00,,0822.0,5.02,0.00,25.6,25.0,00.0,34.4,27.5,10.6,0000.0,0022.95,0008.81,0007.17
2022-04-16 20:10:00,,0822.1,4.99,0.00,25.7,25.0,00.0,34.4,27.6,10.6,0002.0,0024.85,0008.89,0007.21
2022-04-16 20:11:00,,0821.8,5.00,0.00,25.7,25.0,00.0,34.4,27.6,10.6,0002.3,0026.54,0008.94,0007.25
2022-04-16 20:12:00,,0822.1,5.02,0.00,25.7,25.1,00.0,34.5,27.6,10.6,0001.6,0026.29,0008.94,0007.25
2022-04-16 20:13:00,,0821.9,5.01,0.00,25.7,25.1,00.0,34.5,27.6,10.6,0000.6,0025.89,0008.92,0007.25
2022-04-16 20:14:00,,0821.9,4.99,0.00,25.7,25.1,00.0,34.5,27.6,10.6,0000.0,0026.44,0008.87,0007.25
2022-04-16 20:15:00,,0822.0,4.99,0.00,25.7,25.0,00.0,34.5,27.6,10.6,0000.9,0025.74,0008.86,0007.25
2022-04-16 20:16:00,,0821.9,5.02,0.00,25.7,25.0,00.0,34.5,27.6,10.7,0001.1,0024.68,0008.82,0007.27
2022-04-16 20:17:00,,0821.9,4.99,0.00,25.7,25.0,00.0,34.5,27.7,10.6,0001.1,0024.66,0008.89,0007.29
2022-04-16 20:18:00,,0821.9,4.99,0.00,25.8,25.1,00.0,34.5,27.7,10.7,0001.7,0023.95,0008.89,0007.31
2022-04-16 20:19:00,,0821.8,5.01,0.00,25.8,25.1,00.0,34.6,27.7,10.7,0001.3,0023.49,0008.97,0007.33
2022-04-16 20:20:00,,0821.9,4.99,0.00,25.8,25.1,00.0,34.6,27.7,10.7,0001.0,0023.16,0009.00,0007.34
2022-04-16 20:21:00,,0821.8,4.98,0.00,25.8,25.1,00.0,34.6,27.7,10.6,0000.5,0021.42,0008.93,0007.35
2022-04-16 20:22:00,,0821.8,5.02,0.00,25.8,25.1,00.0,34.6,27.7,10.7,0000.4,0020.17,0008.93,0007.36
2022-04-16 20:23:00,,0821.8,4.99,0.00,25.8,25.1,00.0,34.6,27.7,10.7,0000.8,0019.85,0008.90,0007.38
2022-04-16 20:24:00,,0821.8,4.99,0.00,25.8,25.1,00.0,34.6,27.7,10.6,0001.1,0020.12,0008.91,0007.40
2022-04-16 20:25:00,,0821.8,5.01,0.00,25.8,25.1,00.0,34.6,27.8,10.6,0001.6,0019.44,0008.96,0007.43
2022-04-16 20:26:00,,0821.8,4.99,0.00,25.9,25.1,00.0,34.7,27.8,10.6,0001.6,0020.08,0009.05,0007.46
2022-04-16 20:27:00,,0821.7,5.02,0.00,25.9,25.2,00.0,34.7,27.8,10.6,0001.3,0019.85,0009.10,0007.48
2022-04-16 20:28:00,,0821.7,5.00,0.00,25.9,25.2,00.0,34.7,27.8,10.6,0001.7,0021.40,0009.08,0007.48
2022-04-16 20:29:00,,0821.7,4.99,0.00,25.9,25.2,00.0,34.7,27.8,10.6,0002.2,0023.07,0009.05,0007.48
2022-04-16 20:30:00,,0821.7,4.99,0.00,25.9,25.2,00.0,34.7,27.8,10.6,0002.8,0023.87,0009.09,0007.49
2022-04-16 20:31:00,,0821.7,5.01,0.00,25.9,25.2,00.0,34.7,27.8,10.5,0003.4,0023.83,0009.07,0007.50
2022-04-16 20:32:00,,0821.7,4.98,0.00,26.0,25.2,00.0,34.7,27.9,10.4,0003.3,0023.06,0009.08,0007.53
2022-04-16 20:33:00,,0821.7,5.00,0.00,26.0,25.2,00.0,34.7,27.9,10.5,0003.7,0023.46,0009.12,0007.55
2022-04-16 20:34:00,,0821.7,5.00,0.00,26.0,25.2,00.0,34.8,27.8,10.5,0003.1,0025.39,0009.17,0007.58
2022-04-16 20:35:00,,0821.8,5.00,0.00,26.0,25.3,00.0,34.8,27.9,10.4,0002.8,0026.06,0009.24,0007.63
2022-04-16 20:36:00,,0821.8,4.99,0.00,26.0,25.3,00.0,34.8,27.9,10.5,0003.0,0026.07,0009.29,0007.68
2022-04-16 20:37:00,,0821.7,4.99,0.00,26.0,25.3,00.0,34.8,27.9,10.5,0002.9,0025.16,0009.30,0007.72
2022-04-16 20:38:00,,0821.7,5.02,0.00,26.0,25.3,00.0,34.8,27.9,10.4,0002.7,0024.81,0009.34,0007.77
2022-04-16 20:39:00,,0821.7,4.99,0.00,26.0,25.3,00.0,34.8,27.9,10.4,0002.9,0024.18,0009.41,0007.80
2022-04-16 20:40:00,,0821.6,5.00,0.00,26.1,25.3,00.0,34.8,27.9,10.5,0003.0,0023.03,0009.51,0007.83
2022-04-16 20:41:00,,0821.7,5.01,0.00,26.1,25.4,00.0,34.9,28.0,10.4,0002.5,0022.76,0009.46,0007.85
2022-04-16 20:42:00,,0821.7,4.99,0.00,26.1,25.4,00.0,34.9,28.0,10.4,0002.1,0023.23,0009.54,0007.88
2022-04-16 20:43:00,,0821.6,5.00,0.00,26.1,25.4,00.0,34.9,28.0,10.4,0002.3,0024.62,0009.59,0007.89
2022-04-16 20:44:00,,0821.5,5.02,0.00,26.1,25.4,00.0,34.9,28.0,10.4,0002.3,0024.96,0009.59,0007.90
2022-04-16 20:45:00,,0821.4,5.00,0.00,26.1,25.4,00.0,34.9,28.0,10.4,0002.7,0023.34,0009.61,0007.93
2022-04-16 20:46:00,,0821.4,5.00,0.00,26.2,25.5,00.0,34.9,28.1,10.4,0003.1,0022.73,0009.64,0007.93
2022-04-16 20:47:00,,0821.4,4.99,0.00,26.2,25.5,00.0,34.9,28.1,10.4,0003.0,0022.33,0009.59,0007.92
2022-04-16 20:48:00,,0821.4,5.01,0.00,26.2,25.5,00.0,35.0,28.1,10.4,0003.4,0022.78,0009.61,0007.93
2022-04-16 20:49:00,,0821.4,5.01,0.00,26.2,25.5,00.0,35.0,28.1,10.5,0003.8,0022.82,0009.62,0007.92
2022-04-16 20:50:00,,0821.4,4.99,0.00,26.2,25.5,00.0,35.0,28.1,10.5,0003.8,0022.08,0009.60,0007.95
2022-04-16 20:51:00,,0821.4,4.99,0.00,26.2,25.5,00.0,35.0,28.1,10.6,0003.4,0021.55,0009.57,0007.96
2022-04-16 20:52:00,,0821.4,5.00,0.00,26.2,25.5,00.0,35.0,28.1,10.4,0003.3,0021.00,0009.63,0007.98
2022-04-16 20:53:00,,0821.4,4.99,0.00,26.3,25.5,00.0,35.0,28.2,10.4,0003.8,0021.91,0009.66,0008.01
2022-04-16 20:54:00,,0821.4,4.99,0.00,26.3,25.6,00.0,35.0,28.2,10.3,0004.3,0022.73,0009.73,0008.03
2022-04-16 20:55:00,,0821.4,5.00,0.00,26.3,25.6,00.0,35.0,28.2,10.2,0003.5,0022.61,0009.82,0008.07
2022-04-16 20:56:00,,0821.4,5.00,0.00,26.3,25.6,00.0,35.1,28.2,10.3,0002.8,0022.87,0009.87,0008.10
2022-04-16 20:57:00,,0821.4,4.98,0.00,26.3,25.6,00.0,35.1,28.2,10.2,0002.4,0022.35,0009.90,0008.15
2022-04-16 20:58:00,,0821.3,5.01,0.00,26.3,25.6,00.0,35.1,28.2,10.2,0002.4,0022.74,0010.02,0008.22
2022-04-16 20:59:00,,0821.3,4.99,0.00,26.4,25.6,00.0,35.1,28.2,10.2,0002.0,0022.53,0010.06,0008.28
